Regional Weather Roundup
Issued by NWS

Home | Current Version | Previous Version | Text Only | Print | Product List | Glossary On
Versions: 1 2 3 4 5 6 7 8 9 10 11 12 13 14 15 16 17 18 19 20 21 22 23 24 25 26 27 28 29 30 31 32 33 34 35 36 37 38 39 40 41 42 43 44 45 46 47 48 49 50
000
ASUS43 KMKX 010010
RWRWI

WISCONSIN REGIONAL WEATHER ROUNDUP
NATIONAL WEATHER SERVICE MILWAUKEE/SULLIVAN WI
600 PM CST SAT JAN 31 2015

NOTE: "FAIR" INDICATES FEW OR NO CLOUDS BELOW 12,000 FEET WITH NO
SIGNIFICANT WEATHER AND/OR OBSTRUCTIONS TO VISIBILITY.

WIZ001-002-006>008-014>016-023>028-010100-
NORTHWEST WISCONSIN

CITY           SKY/WX    TMP DP  RH WIND       PRES   REMARKS
SUPERIOR ARPT  CLOUDY    19   2  49 NE5       30.33R WCI  12
6HR MIN TEMP:  19; 6HR MAX TEMP:  24;

ASHLAND        PTCLDY    14   4  64 NE12      30.32R WCI   0
6HR MIN TEMP:  14; 6HR MAX TEMP:  22;

HAYWARD        PTCLDY    17   6  62 NE9       30.26R WCI   6
6HR MIN TEMP:  17; 6HR MAX TEMP:  24;

SIREN          CLOUDY    22   7  51 NE12G17   30.25R WCI  11
6HR MIN TEMP:  22; 6HR MAX TEMP:  28;

CUMBERLAND     CLOUDY    23  10  58 NE7       30.21R WCI  15
RICE LAKE      CLOUDY    24  14  66 NE9       30.23R WCI  14
6HR MIN TEMP:  23; 6HR MAX TEMP:  27;

CHETEK         CLOUDY    24  14  65 NE8       30.22R WCI  15
6HR MIN TEMP:  24; 6HR MAX TEMP:  28;

LADYSMITH      MOCLDY    20  12  69 NE7       30.24R WCI  11
6HR MIN TEMP:  20; 6HR MAX TEMP:  27;

EAU CLAIRE     CLOUDY    26  16  65 NE8       30.20R WCI  18
6HR MIN TEMP:  26; 6HR MAX TEMP:  28;

MENOMONIE      CLOUDY    27  17  65 NE9       30.20S WCI  18
6HR MIN TEMP:  27; 6HR MAX TEMP:  29;

NEW RICHMOND   CLOUDY    25  15  66 NE8       30.21R WCI  16
6HR MIN TEMP:  25; 6HR MAX TEMP:  29;

OSCEOLA        CLOUDY    26  13  56 NE9       30.25R WCI  17
6HR MIN TEMP:  26; 6HR MAX TEMP:  29;

$$

WIZ003>005-009-010-017-018-010100-
NORTH CENTRAL WISCONSIN

CITY           SKY/WX    TMP DP  RH WIND       PRES   REMARKS
MANITOWISH WTR CLOUDY    14   8  76 NE6       30.23R WCI   5
6HR MIN TEMP:  14; 6HR MAX TEMP:  20;

ARBOR VITAE    CLOUDY    17   8  67 NE8       30.22R WCI   6
6HR MIN TEMP:  17; 6HR MAX TEMP:  23;

WOODRUFF       CLOUDY    17   8  67 NE8       30.22R WCI   6
6HR MIN TEMP:  17; 6HR MAX TEMP:  23;

RHINELANDER    CLOUDY    17   8  67 NE8       30.21R WCI   7
6HR MIN TEMP:  17; 6HR MAX TEMP:  23; 6HR PCP: TRACE;

EAGLE RIVER    CLOUDY    15   5  66 N9        30.22R WCI   3
6HR MIN TEMP:  15; 6HR MAX TEMP:  22;

LAND O LAKES   FLURRIES  14   9  79 N6        30.23R WCI   5
6HR MIN TEMP:  14; 6HR MAX TEMP:  22;

PHILLIPS       PTCLDY    14   7  73 N9        30.22R WCI   2
6HR MIN TEMP:  14; 6HR MAX TEMP:  23;

TOMAHAWK       CLOUDY    19  11  71 CALM      30.21R
6HR MIN TEMP:  19; 6HR MAX TEMP:  24;

MEDFORD        CLOUDY    22  13  70 NE12      30.18R WCI  10
6HR MIN TEMP:  22; 6HR MAX TEMP:  26;

MERRILL        CLOUDY    23  13  67 N7        30.20R WCI  14
6HR MIN TEMP:  23; 6HR MAX TEMP:  26;

$$

WIZ029-030-035-036-043>047-010100-
CENTRAL WISCONSIN

CITY           SKY/WX    TMP DP  RH WIND       PRES   REMARKS
WAUSAU         CLOUDY    24  16  71 NE5       30.18R WCI  18
6HR MIN TEMP:  24; 6HR MAX TEMP:  27;

MOSINEE        CLOUDY    25  21  86 N6        30.19S WCI  18
MARSHFIELD     CLOUDY    26  17  68 NE10      30.18R WCI  16
6HR MIN TEMP:  26; 6HR MAX TEMP:  28;

STEVENS POINT  CLOUDY    25  17  72 N6        30.19R WCI  18
6HR MIN TEMP:  24; 6HR MAX TEMP:  26;

WAUPACA        CLOUDY    30  20  65 N3        30.20S
6HR MIN TEMP:  30; 6HR MAX TEMP:  31;

WAUTOMA        CLOUDY    28  21  75 E5        30.20R WCI  23
6HR MIN TEMP:  28; 6HR MAX TEMP:  30;

WISC RAPIDS    CLOUDY    27  17  66 NE6       30.20R WCI  20
6HR MIN TEMP:  26; 6HR MAX TEMP:  28;

CAMP DOUGLAS   CLOUDY    28  25  87 NE6       30.17S WCI  22
6HR MIN TEMP:  28; 6HR MAX TEMP:  30;

$$

WIZ011>013-019>022-031-037>040-048>050-010100-
NORTHEAST WISCONSIN

CITY           SKY/WX    TMP DP  RH WIND       PRES   REMARKS
ANTIGO         CLOUDY    21  14  74 NE8       30.19R WCI  12
6HR MIN TEMP:  21; 6HR MAX TEMP:  24;

SHAWANO        CLOUDY    29  20  68 NE8       30.22R WCI  21
6HR MIN TEMP:  29; 6HR MAX TEMP:  32;

OCONTO         CLOUDY    26  19  75 MISG      30.24R
6HR MIN TEMP:  26; 6HR MAX TEMP:  29;

STURGEON BAY   CLOUDY    25  18  74 NE12      30.25R WCI  14
6HR MIN TEMP:  25; 6HR MAX TEMP:  27;

GREEN BAY      CLOUDY    27  19  72 NE6       30.22R WCI  20
6HR MIN TEMP:  26; 6HR MAX TEMP:  29;

MANITOWOC      CLOUDY    27  20  75 NE6       30.22  WCI  20
6HR MIN TEMP:  27; 6HR MAX TEMP:  30;

APPLETON       CLOUDY    27  18  69 VRB5      30.20S WCI  21
CLINTONVILLE   CLOUDY    28  19  69 NE6       30.21R WCI  22
OSHKOSH        CLOUDY    27  19  72 NE5       30.20R WCI  22
6HR MIN TEMP:  27; 6HR MAX TEMP:  29;

$$

WIZ032>034-041-042-053>061-010100-
SOUTHWEST WISCONSIN

CITY           SKY/WX    TMP DP  RH WIND       PRES   REMARKS
LA CROSSE      CLOUDY    31  22  69 NE5       30.17S WCI  26
6HR MIN TEMP:  30; 6HR MAX TEMP:  33;

SPARTA         CLOUDY    29  22  74 NE5       30.18S WCI  24
6HR MIN TEMP:  29; 6HR MAX TEMP:  31;

VIROQUA        CLOUDY    28  25  88 NE9       30.13S WCI  20
6HR MIN TEMP:  28; 6HR MAX TEMP:  31;

BOSCOBEL       CLOUDY    33  23  66 VRB3      30.15S
6HR MIN TEMP:  32; 6HR MAX TEMP:  35;

PRAIRIE DU CHI CLOUDY    33  24  68 CALM      30.14S
6HR MIN TEMP:  32; 6HR MAX TEMP:  34;

PLATTEVILLE    CLOUDY    32  27  83 E5        30.12S WCI  27
6HR MIN TEMP:  31; 6HR MAX TEMP:  33;

$$

WIZ056-057-062-063-064-067-068-010100-
SOUTH CENTRAL WISCONSIN

CITY           SKY/WX    TMP DP  RH WIND       PRES   REMARKS
REEDSBURG      CLOUDY    29  23  79 NE6       30.16R WCI  23
6HR MIN TEMP:  29; 6HR MAX TEMP:  31;

BARABOO/DELLS  CLOUDY    29  22  76 NE6       30.16R WCI  23
6HR MIN TEMP:  29; 6HR MAX TEMP:  31;

LONE ROCK      CLOUDY    33  23  66 NE7       30.16S WCI  27
6HR MIN TEMP:  30; 6HR MAX TEMP:  33;

MINERAL POINT  CLOUDY    32  28  86 NE3       30.12S
MADISON        CLOUDY    32  23  69 NE10      30.15S WCI  24
6HR MIN TEMP:  32; 6HR MAX TEMP:  35;

MIDDLETON      CLOUDY    33  25  73 NE7       30.15S WCI  27
6HR MIN TEMP:  33; 6HR MAX TEMP:  35;

WATERTOWN      CLOUDY    31  24  75 N3        30.16S
6HR MIN TEMP:  31; 6HR MAX TEMP:  32;

MONROE         CLOUDY    32  27  80 E3        30.13S
JANESVILLE     CLOUDY    34  25  69 E7        30.15S WCI  28
$$

WIZ051-052-058>065-066-070>072-010100-
SOUTHEAST WISCONSIN

CITY           SKY/WX    TMP DP  RH WIND       PRES   REMARKS
MILWAUKEE      CLOUDY    32  22  66 NE7       30.18S WCI  26
6HR MIN TEMP:  32; 6HR MAX TEMP:  37;

WAUKESHA       CLOUDY    30  21  69 NE3       30.17S
MILWAUKEE/TIMM CLOUDY    30  21  69 NE7       30.19R WCI  23
RACINE         CLOUDY    32  23  69 E3        30.19S
6HR MIN TEMP:  32; 6HR MAX TEMP:  36;

BURLINGTON     CLOUDY    31  23  72 CALM      30.16F
6HR MIN TEMP:  31; 6HR MAX TEMP:  32;

KENOSHA        CLOUDY    32  24  72 E6        30.17S WCI  26
6HR MIN TEMP:  32; 6HR MAX TEMP:  36;

FOND DU LAC    CLOUDY    27  19  72 NE9       30.20R WCI  18
6HR MIN TEMP:  27; 6HR MAX TEMP:  30;

SHEBOYGAN      CLOUDY    28  20  71 NE9       30.20R WCI  19
6HR MIN TEMP:  28; 6HR MAX TEMP:  30;

WEST BEND      CLOUDY    28  19  69 NE7       30.18S WCI  21
JUNEAU         CLOUDY    27  21  76 N7        30.19R WCI  20
6HR MIN TEMP:  27; 6HR MAX TEMP:  30;

$$

LSZ147-162-010100-
LAKE SUPERIOR

STATION/POSITION TIME  TEMP    WIND        PRES    WAVE
                       AIR SEA DIR/SP/G            HT/PER
                 (UTC) (F)     (DEG/KT/KT) (MB)    (FT/S)
DEVILS ISLAND    0000   17      30/ 14/ 17 1029.1R
PORT WING        2340   18      60/ 10/ 13 1026.8R
SAXON HARBOR     2300   20     360/ 10/ 14 1025.7S
$$

LMZ867-665-643>646-010100-
LAKE MICHIGAN

STATION/POSITION TIME  TEMP    WIND        PRES    WAVE


USA.gov is the U.S. government's official web portal to all federal, state and local government web resources and services.